Showing default

TIMATION 1, 2847

Orbit data source: Space-Track

TIMATION 1, 2847 is a payload satellite owned by NRL (US) in LEO that was launched on Wed, 31 May 1967 UTC via a THOR SLV-2 AGENA D launch vehicle from the Air Force Western Test Range (AFWTR). Payload-class satellites include a variety of spacecraft equipped with specific instruments for various scientific and technological missions. These include communications satellites like Starlink; space stations such as the ISS; scientific satellites like the Hubble; Earth observation satellites from companies like Planet Labs, Umbra, and HawkEye 360; GPS; miniature CubeSats for education and research; and military/defense satellites.

Loading next visibility...
Identifier
2847, 1967-053E
Orbit
LEO
Country
Flag of USUS
Related business
Manufacturer
NRL
Mission
Spacecraft
Bus & Motor
TIMATION, Unknown motor
Mass
39 kg wet, 39 kg dry
Launch date (UTC)
1967-05-31 (58 years ago)
Launch vehicle
THOR SLV-2 AGENA D
Launch site
Air Force Western Test Range (AFWTR)
Object type
Payload
Rocket body
Debris
Shape & HBR
Unknown
Radar Cross Section
Medium (>0.1 m² and <1 m²)

Expand to show TLE details & history
Last TLE update: 12 hours ago

TLE from 12 hours ago
0 TIMATION 1
1  2847U 67053E   25295.21983431  .00000351  00000-0  26158-3 0  9990
2  2847  69.9674   2.6873 0006675 347.0105  13.0831 14.02854368980413
Epoch: 2025-10-22T05:16Z
TLE epoch observation values (Epoch: 2025-10-22T05:16:33.684Z)
Latitude
-0.00002°
Longitude
-107.34963°
Altitude
881.523 km
Speed
7.414 km/s
True Right ascension
00h 10m 44s
True Declination
0° 00' 00"
Sunlit
Object was in full shadow at epoch
Visualization orbit readout
Latitude
Unknown
Longitude
Unknown
Altitude
Unknown
Speed
Unknown
Apparent Right ascension
Unknown
Apparent Declination
Unknown
Sunlit
N/A
Visualization observer readout
Local Sidereal Time
12:34:47
Azimuth
Unknown
Elevation
Unknown
Doppler factor
Unknown
Orbital elements
Apogee altitude
886.814 km
Perigee altitude
877.122 km
Semi-major axis
7,260.105 km
Eccentricity
0.00067
Inclination
69.9674°
RAAN
2.6873°
Arg. of periapsis
347.0105°
True anomaly
13.10043°
Mean anomaly
13.0831°
Eccentric anomaly
13.09176°
Mean motion
3.50856 °/min
Orbital period
102.61 mins
BSTAR
0.00026158
Loading maneuver chart data...
Computing Atmospheric mass density...
Loading historical data...
Loading historical data...
Loading historical data...
Loading historical data...
Loading historical data...
Loading historical data...
Loading historical data...

Documentation

Showing up to 5 results
|